Flag for Germany Weather past 2 weeks in Pinneberg, Schleswig-Holstein, Germany

Now
63 °F

Light rain. Broken clouds.


Feels Like: 63 °F
Forecast: 55 / 64 °F
Wind: 12 mph from West

Location: Hamburg-Fuhlsbuettel

Current Time: Sep 1, 2015 at 4:29:31 PM

Latest Report: Sep 1, 2015 at 3:50 PM


Visibility: N/A

Pressure: 29.80 "Hg

Humidity: 83%

Dew point: 57 °F

Location of PinnebergLocation

Historic Weather in Pinneberg — Graph

°F

Pinneberg temperature yesterday

Maximum temperature yesterday: 82 °F (at 4:50 PM)
Minimum temperature yesterday: 63 °F (at 12:20 AM)
Average temperature yesterday: 71 °F

Past Weeks' High & Low Weather Summary

 TemperatureHumidityPressure
High82 °F (Aug 31, 4:50 PM)100% (Aug 18, 11:20 AM)30.30 "Hg (Aug 18, 11:20 AM)
Low50 °F (Aug 29, 3:50 AM)30% (Aug 22, 12:50 PM)29.59 "Hg (Aug 24, 7:20 PM)
Average64 °F78%29.98 "Hg
* Reported Aug 17 3:20 PM — Sep 1 3:20 PM, Pinneberg, Weather by CustomWeather, © 2015

Note: Actual official high and low records may vary slightly from our data, if they occured in-between our weather recording intervals... More about our weather records

Advertising

Pinneberg weather history for previous 24 hours

 ConditionsComfort  
Time TempWeatherWind HumidityBarometerVisibility
3:20 PM
Tue, Sep 1
63 °FLight rain. Broken clouds.13 mph83%29.80 "HgN/A
2:50 PM64 °FLight rain. Broken clouds.14 mph78%29.80 "HgN/A
2:20 PM63 °FBroken clouds.15 mph83%29.77 "HgN/A
1:50 PM63 °FLight rain. Partly sunny.13 mph83%29.77 "HgN/A
1:20 PM64 °FBroken clouds.17 mph78%29.77 "HgN/A
12:50 PM64 °FPartly sunny.15 mph78%29.77 "HgN/A
12:20 PM64 °FPartly sunny.13 mph78%29.74 "HgN/A
11:50 AM64 °FBroken clouds.14 mph78%29.74 "HgN/A
11:20 AM64 °FBroken clouds.15 mph78%29.74 "HgN/A
10:50 AM66 °FBroken clouds.14 mph78%29.74 "HgN/A
10:20 AM66 °FBroken clouds.10 mph83%29.74 "HgN/A
9:50 AM66 °FLight rain. Broken clouds.16 mph83%29.71 "HgN/A
9:20 AM68 °FPartly sunny.14 mph83%29.71 "HgN/A
8:50 AM68 °FBroken clouds.13 mph83%29.71 "HgN/A
8:20 AM68 °FBroken clouds.10 mph83%29.71 "HgN/A
7:50 AM68 °FBroken clouds.12 mph83%29.71 "HgN/A
7:20 AM68 °FPassing clouds.8 mph88%29.68 "Hg4 mi
6:50 AM68 °FPassing clouds.7 mph88%29.68 "Hg4 mi
5:50 AM68 °FPassing clouds.6 mph83%29.71 "HgN/A
5:20 AM68 °FClear.10 mph88%29.71 "Hg10 mi
4:50 AM68 °FClear.8 mph83%29.71 "Hg10 mi
4:20 AM68 °FClear.8 mph88%29.68 "Hg10 mi
3:50 AM68 °FPassing clouds.10 mph88%29.71 "HgN/A
3:20 AM66 °FClear.7 mph94%29.68 "Hg10 mi
2:50 AM66 °FClear.5 mph94%29.68 "Hg10 mi
2:20 AM66 °FClear.3 mph94%29.68 "Hg10 mi
1:50 AM68 °FClear.3 mph94%29.71 "Hg10 mi
1:20 AM68 °FClear.3 mph94%29.71 "Hg10 mi
12:50 AM68 °FClear.1 mph94%29.71 "Hg10 mi
12:20 AM68 °FClear.2 mph94%29.68 "Hg10 mi
11:50 PM
Mon, Aug 31
72 °FPassing clouds.7 mph83%29.71 "HgN/A
11:20 PM68 °FPassing clouds.3 mph88%29.68 "HgN/A
10:50 PM70 °FClear.2 mph88%29.71 "Hg10 mi
10:20 PM70 °FClear.2 mph88%29.71 "Hg10 mi
9:50 PM72 °FPassing clouds.3 mph83%29.71 "HgN/A
9:20 PM73 °FPassing clouds.6 mph78%29.68 "HgN/A
8:50 PM73 °FSunny.10 mph78%29.68 "Hg10 mi
8:20 PM75 °FPassing clouds.7 mph74%29.71 "HgN/A
7:50 PM79 °FPassing clouds.7 mph70%29.71 "HgN/A
7:20 PM81 °FPassing clouds.7 mph62%29.71 "HgN/A
6:50 PM81 °FPassing clouds.9 mph62%29.74 "HgN/A
6:20 PM82 °FSunny.10 mph58%29.74 "Hg10 mi
5:50 PM81 °FPassing clouds.8 mph58%29.74 "HgN/A
5:20 PM82 °FPassing clouds.12 mph51%29.77 "HgN/A
4:50 PM82 °FPassing clouds.10 mph51%29.77 "HgN/A
4:20 PM81 °FPassing clouds.12 mph54%29.80 "HgN/A
Weather by CustomWeather, © 2015

See weather overviewHow to use our weather pages